Location: Byhalia Creek
(34.8270°N, 89.8040°W)
Time: 20:58:34
(UTC+00:00)

ATLAS 5 CENTAUR R/B - Pass Details

Date: 22 April 2026
Orbit: 300 x 12796 km, 60.8° (Epoch: 21 May)

Event Time Altitude Azimuth Distance (km) Brightness Sun altitude
Exits shadow 09:04:57 57° 191° (S) 1,051 2.9 -25.3°
Maximum altitude 09:06:02 78° 120° (ESE) 1,064 3.1 -25.2°
Drops below altitude 10° 09:19:29 10° 36° (NE) 6,254 8.1 -22.9°
Sets 09:28:02 0° 37° (NE) 9,257 9.3 -21.5°
